Temp
17 17 17 18 18 17 17 16 16 15 15 15 15 15 15 15 15 16 16 15 15 15 15 15 16 15 15 15 15 15 15 16 16 17 17 17 17 17 17 17 17 17 17
18 17 18 18 18 17 16 16 16 16 15 15 15 15 15 15 15 15 15 15 15 16 16 16 16 16 16 15 15 16 16 16 16 16 17 17 17 17 17 17 17 17 17
18 18 18 18 18 17 17 17 16 16 16 16 16 15 15 15 15 15 15 15 16 17 16 16 16 16 16 16 17 16 16 16 16 16 16 16 17 17 17 17 17 17 17
19 18 18 18 17 17 17 16 17 17 16 16 16 16 16 16 16 15 15 16 17 17 17 17 17 17 17 16 16 16 16 15 15 16 16 16 16 17 17 17 18 18 18
19 18 17 18 17 17 17 17 17 17 17 17 16 17 17 16 16 16 16 17 17 17 17 17 17 17 16 16 16 16 16 16 16 17 17 17 17 18 18 18 18 18 17
19 18 18 17 17 17 17 17 17 17 17 17 17 17 17 17 17 17 17 17 17 17 17 17 17 17 16 16 16 16 16 16 16 17 17 17 17 17 17 17 17 17 17
18 18 18 17 17 17 17 17 17 17 17 17 17 17 17 17 17 17 18 17 17 17 17 17 17 17 17 16 17 17 16 17 16 17 17 16 16 17 17 17 17 17 17
19 18 18 17 17 17 17 17 17 17 17 17 17 17 17 17 17 18 17 17 17 17 17 17 17 17 17 17 17 17 17 17 16 17 16 16 16 16 17 17 17 17 16
18 18 18 18 17 17 17 17 17 17 16 16 16 17 17 17 17 17 17 17 17 17 17 17 17 17 17 17 18 17 18 17 17 17 17 17 16 17 17 17 17 17 17
18 18 18 18 18 17 17 17 17 17 17 16 16 16 16 16 16 17 17 17 17 17 17 17 17 17 17 17 16 17 18 18 17 17 17 17 17 17 17 17 16 16 16
17 17 17 17 17 17 17 17 17 17 16 15 15 15 15 16 16 16 17 17 17 17 17 17 17 17 17 16 16 16 16 17 18 17 16 16 16 17 16 17 16 16 15
17 17 17 17 17 17 17 17 16 16 16 15 15 15 15 16 16 16 16 16 16 17 16 16 16 16 16 16 16 16 16 16 16 17 16 16 16 16 15 15 16 15 15
17 17 17 17 17 17 16 16 16 15 15 15 15 15 15 15 15 16 16 16 16 16 16 16 15 15 15 16 16 16 16 16 16 16 16 15 14 15 15 14 14 15 15
17 17 17 17 16 16 16 16 16 15 15 15 15 14 15 15 15 15 16 15 15 16 16 16 16 16 16 16 16 15 15 16 15 15 15 15 15 15 14 14 14 14 14
17 17 16 16 16 16 15 15 15 15 16 16 15 15 15 15 16 15 15 16 15 15 16 16 16 16 16 15 15 15 15 15 15 15 15 15 14 15 14 14 14 13 13
17 17 16 16 16 15 16 15 15 15 16 15 16 15 16 15 16 15 15 16 15 15 16 15 15 15 15 15 15 15 14 15 14 14 14 14 14 14 13 13 13 13 13
17 17 16 16 15 15 16 16 16 16 15 15 16 16 16 15 15 15 15 15 15 15 15 15 15 16 16 15 15 14 14 14 14 14 13 13 13 12 13 12 12 13 12
17 16 15 15 15 15 15 15 15 15 15 16 16 16 16 15 15 16 16 16 16 15 15 15 15 15 15 15 14 13 13 13 13 12 12 12 12 13 12 12 13 13 12
16 16 16 16 15 15 15 15 15 15 15 15 15 16 15 15 15 15 15 15 15 15 15 15 16 16 15 15 14 14 12 12 12 12 12 12 12 12 12 12 13 11 10
16 16 16 16 16 16 15 15 15 15 15 15 15 15 15 15 15 15 15 14 14 15 15 15 15 15 15 14 13 12 11 11 11 12 11 11 11 12 12 11 10 9 8
16 16 16 16 15 15 15 15 14 14 14 14 14 14 14 14 14 14 14 14 14 14 15 15 15 14 14 12 12 10 10 11 11 11 10 11 11 11 10 10 9 8 7
17 16 16 16 15 15 15 15 14 14 14 13 14 13 13 13 13 13 14 14 14 14 14 14 14 14 13 11 11 11 10 10 10 10 10 10 10 10 9 8 7 7 7
16 16 16 15 15 15 14 13 13 12 13 13 13 13 12 12 12 13 14 14 13 13 13 14 13 13 13 12 11 12 11 11 9 9 9 9 9 8 7 7 6 6 6
16 16 16 15 14 13 13 13 13 14 13 13 13 12 12 12 12 13 13 13 13 13 13 13 12 12 12 13 12 12 11 11 10 9 9 8 8 7 7 6 6 6 6
17 16 15 14 12 13 12 12 13 13 12 12 13 12 12 12 12 12 12 12 12 12 12 12 12 12 12 13 12 11 10 10 10 10 8 8 7 6 6 6 5 5 5
17 15 15 14 13 12 12 12 12 12 13 12 12 12 11 12 12 11 11 11 11 11 11 11 11 12 11 11 10 9 9 9 8 8 7 7 6 5 5 4 4 4 4
Height
1530 1530 1533 1535 1536 1536 1538 1539 1541 1542 1543 1543 1543 1543 1541 1541 1541 1542 1542 1542 1542 1543 1544 1545 1547 1547 1549 1551 1553 1553 1554 1554 1555 1556 1556 1557 1556 1556 1555 1555 1555 1555 1555
1527 1530 1533 1534 1535 1537 1538 1539 1541 1542 1543 1544 1544 1544 1544 1544 1543 1544 1545 1545 1544 1544 1545 1547 1549 1550 1551 1553 1554 1555 1556 1556 1557 1557 1558 1558 1557 1558 1557 1557 1557 1556 1556
1528 1531 1533 1534 1536 1537 1539 1540 1541 1542 1544 1544 1544 1545 1545 1545 1546 1547 1548 1548 1547 1548 1548 1549 1550 1551 1553 1554 1555 1557 1558 1558 1559 1559 1559 1559 1559 1559 1559 1558 1558 1558 1558
1529 1531 1534 1535 1537 1538 1539 1541 1542 1543 1544 1545 1545 1545 1545 1545 1546 1548 1548 1549 1549 1550 1550 1552 1553 1554 1555 1557 1558 1560 1560 1561 1561 1561 1561 1561 1561 1560 1561 1560 1560 1560 1560
1529 1532 1535 1536 1538 1539 1541 1542 1543 1544 1544 1546 1546 1547 1546 1547 1547 1548 1549 1551 1552 1553 1554 1555 1556 1557 1559 1560 1561 1562 1563 1563 1563 1562 1562 1562 1562 1562 1563 1563 1562 1562 1562
1530 1533 1535 1537 1539 1541 1543 1544 1544 1545 1546 1546 1547 1547 1548 1548 1549 1550 1551 1552 1554 1555 1557 1558 1559 1560 1561 1562 1563 1564 1565 1565 1563 1563 1564 1563 1563 1564 1564 1564 1563 1563 1562
1530 1534 1536 1538 1540 1542 1544 1545 1545 1546 1547 1548 1549 1549 1550 1550 1550 1551 1552 1554 1555 1557 1559 1560 1561 1562 1562 1564 1564 1565 1566 1565 1565 1565 1564 1565 1564 1565 1565 1565 1565 1564 1563
1530 1533 1537 1539 1541 1543 1545 1547 1548 1548 1549 1550 1551 1552 1552 1553 1553 1554 1555 1556 1558 1559 1560 1561 1562 1564 1564 1565 1565 1566 1566 1566 1566 1566 1565 1565 1565 1567 1566 1566 1566 1565 1564
1533 1534 1537 1540 1542 1544 1545 1547 1549 1550 1550 1551 1552 1553 1554 1555 1555 1557 1558 1559 1560 1561 1562 1563 1564 1564 1565 1565 1566 1566 1567 1567 1567 1566 1565 1565 1566 1567 1567 1566 1566 1565 1564
1534 1535 1537 1539 1542 1544 1546 1547 1549 1551 1552 1553 1554 1555 1556 1557 1558 1559 1560 1560 1561 1562 1563 1564 1565 1565 1566 1566 1566 1566 1566 1567 1566 1566 1566 1566 1566 1567 1567 1567 1566 1564 1562
1533 1536 1537 1539 1541 1544 1546 1548 1550 1551 1553 1554 1556 1557 1558 1558 1559 1560 1561 1562 1563 1563 1564 1565 1566 1566 1566 1567 1567 1568 1568 1567 1567 1567 1566 1566 1566 1567 1567 1566 1565 1564 1561
1530 1534 1537 1539 1541 1543 1546 1548 1550 1552 1554 1555 1557 1557 1558 1559 1561 1562 1562 1563 1563 1564 1565 1565 1565 1566 1566 1567 1567 1567 1568 1568 1567 1567 1567 1566 1566 1566 1565 1564 1562 1561 1559
1528 1532 1536 1539 1541 1543 1545 1547 1550 1552 1554 1555 1556 1557 1558 1559 1560 1561 1562 1563 1564 1564 1565 1565 1566 1566 1566 1566 1566 1567 1566 1566 1566 1565 1563 1563 1562 1562 1562 1560 1558 1557 1556
1528 1531 1535 1538 1540 1543 1545 1547 1549 1551 1552 1554 1556 1557 1558 1558 1559 1560 1560 1562 1563 1564 1565 1565 1565 1565 1565 1565 1565 1564 1563 1563 1561 1561 1560 1560 1560 1559 1559 1557 1555 1554 1553
1528 1530 1533 1536 1539 1542 1544 1547 1549 1550 1551 1553 1556 1558 1559 1559 1560 1560 1561 1561 1562 1562 1564 1564 1565 1564 1564 1564 1563 1563 1562 1561 1560 1560 1559 1559 1558 1557 1557 1555 1553 1552 1550
1526 1528 1531 1534 1537 1539 1542 1544 1546 1549 1551 1553 1555 1557 1558 1559 1559 1560 1560 1561 1562 1562 1563 1563 1563 1562 1563 1563 1563 1561 1559 1559 1558 1557 1557 1556 1556 1556 1555 1554 1552 1550 1549
1526 1527 1529 1532 1535 1537 1539 1542 1544 1547 1550 1552 1554 1555 1556 1557 1558 1559 1560 1560 1561 1561 1561 1561 1560 1560 1560 1560 1560 1558 1557 1556 1557 1555 1556 1556 1555 1555 1553 1552 1550 1548 1547
1526 1525 1526 1528 1532 1535 1538 1541 1544 1547 1549 1551 1552 1553 1555 1555 1556 1557 1558 1558 1558 1558 1558 1557 1557 1557 1557 1557 1557 1557 1555 1555 1555 1555 1556 1555 1554 1553 1552 1550 1548 1546 1543
1523 1524 1525 1527 1530 1533 1537 1540 1543 1545 1547 1549 1551 1551 1553 1554 1554 1555 1555 1555 1555 1555 1554 1553 1552 1553 1553 1553 1553 1554 1555 1555 1555 1555 1555 1554 1553 1552 1550 1549 1546 1544 1541
1519 1522 1524 1526 1529 1531 1535 1538 1541 1543 1545 1546 1548 1549 1550 1551 1551 1552 1553 1552 1552 1552 1551 1550 1549 1549 1550 1548 1549 1552 1554 1555 1555 1555 1554 1553 1552 1551 1549 1547 1544 1542 1540
1516 1519 1522 1524 1527 1530 1532 1535 1538 1540 1542 1543 1545 1546 1547 1547 1548 1549 1550 1550 1550 1550 1549 1547 1547 1548 1547 1547 1548 1552 1554 1555 1555 1554 1554 1553 1551 1549 1547 1545 1543 1541 1539
1511 1514 1518 1522 1525 1528 1531 1533 1535 1537 1538 1541 1543 1544 1545 1545 1546 1547 1548 1548 1548 1547 1546 1546 1546 1547 1547 1547 1549 1550 1553 1556 1555 1554 1554 1552 1550 1548 1546 1544 1542 1540 1537
1507 1510 1514 1518 1521 1525 1527 1530 1532 1534 1536 1538 1540 1541 1542 1542 1544 1545 1546 1546 1545 1545 1545 1545 1545 1546 1546 1547 1548 1549 1551 1551 1552 1553 1554 1551 1549 1547 1545 1544 1542 1539 1535
1503 1506 1509 1514 1517 1520 1522 1525 1527 1529 1532 1534 1536 1538 1540 1541 1542 1543 1544 1544 1544 1544 1544 1545 1545 1545 1545 1545 1546 1546 1547 1547 1548 1552 1553 1551 1549 1547 1546 1543 1541 1538 1533
1497 1500 1505 1509 1512 1515 1518 1522 1524 1526 1530 1531 1533 1536 1538 1539 1540 1541 1542 1542 1543 1543 1543 1544 1544 1544 1545 1544 1544 1544 1546 1546 1547 1548 1550 1550 1549 1547 1545 1542 1539 1536 1531
1490 1495 1499 1504 1508 1511 1514 1517 1521 1523 1526 1527 1530 1532 1535 1536 1538 1540 1540 1541 1542 1543 1543 1544 1545 1545 1545 1545 1545 1545 1545 1545 1545 1547 1547 1548 1549 1547 1544 1541 1537 1534 1530
Wind_Speed
22 19 15 13 13 15 17 15 15 14 15 14 15 13 15 17 18 20 19 17 14 14 13 13 13 13 14 14 14 14 14 14 14 12 11 10 10 11 12 11 11 10 10
24 19 16 15 17 18 18 16 16 14 13 13 12 14 14 14 14 14 13 13 13 11 14 15 15 15 16 17 15 15 16 16 18 16 14 13 11 10 9 9 9 9 9
25 21 19 19 21 20 18 17 15 14 12 13 12 12 14 13 13 13 11 11 12 13 16 17 17 17 18 18 17 18 17 16 15 15 14 14 12 9 8 8 8 8 7
25 23 22 22 23 21 18 17 15 14 13 12 14 12 12 11 12 12 11 11 13 15 17 18 19 19 20 21 20 17 15 13 11 11 12 12 13 11 8 9 8 7 5
26 24 24 24 24 22 19 16 16 16 14 14 14 13 13 14 12 12 12 11 16 17 18 18 19 20 20 19 16 15 14 11 8 8 11 10 13 11 9 8 7 6 5
28 26 24 24 23 21 18 17 16 16 15 14 14 14 12 15 15 14 13 15 17 17 17 18 18 18 18 16 14 13 10 9 3 6 9 10 13 11 10 9 9 9 8
30 27 25 22 21 20 18 16 15 16 16 16 15 14 14 14 13 14 15 16 17 17 16 15 15 16 15 14 12 10 8 9 4 2 4 5 8 10 14 14 12 10 9
29 28 26 23 20 18 17 17 15 15 15 16 16 16 15 14 14 14 14 15 15 14 13 13 13 12 13 11 9 8 6 7 11 10 5 3 4 6 12 15 14 12 11
26 26 25 23 21 19 17 16 15 15 15 16 16 16 16 15 15 13 12 12 11 10 9 9 9 9 9 9 9 7 5 4 8 10 5 4 4 5 10 14 17 18 15
25 24 24 22 20 19 18 16 16 15 15 16 16 16 14 15 14 12 10 9 9 8 7 7 7 6 6 7 7 6 6 5 3 8 8 6 2 5 10 15 19 19 17
27 25 24 23 20 18 17 16 15 15 16 17 14 12 12 14 14 13 11 9 8 7 7 7 7 6 5 5 6 4 3 2 5 4 7 11 7 9 12 15 18 17 16
30 27 24 22 21 19 17 16 16 15 15 15 12 11 9 11 13 13 12 11 9 9 8 8 9 8 5 6 7 3 6 7 9 5 8 9 10 10 12 12 12 13 13
31 28 25 22 21 20 19 19 17 17 15 14 12 10 7 9 7 5 4 5 6 5 3 2 1 2 2 3 4 4 2 4 5 7 7 7 6 8 13 14 14 14 16
31 28 26 26 23 22 20 19 17 17 13 11 10 7 6 5 4 4 4 6 6 7 6 3 4 4 3 4 7 8 8 9 13 12 13 13 12 13 14 10 13 14 14
31 29 29 28 23 22 20 18 17 17 12 11 11 10 12 7 6 7 6 6 7 5 6 6 5 6 6 6 4 5 5 6 9 9 9 9 12 11 11 15 14 12 13
31 29 28 25 23 21 21 23 21 18 14 15 14 10 14 12 12 9 10 10 9 9 8 11 11 11 12 12 10 10 8 10 10 7 7 4 4 5 5 7 11 14 14
30 28 27 27 25 23 22 22 23 20 19 17 14 12 12 15 14 15 15 14 13 14 15 16 16 16 16 14 12 9 9 6 5 3 4 6 5 5 7 9 12 16 17
34 32 30 29 30 26 24 24 24 22 19 17 14 13 14 14 16 15 16 16 15 16 16 17 17 16 15 13 11 4 1 6 10 11 9 5 5 7 9 12 16 18 17
36 35 32 30 31 30 28 27 25 22 20 18 15 15 15 15 15 15 16 16 15 13 13 14 14 11 9 7 7 7 9 11 11 9 5 2 6 10 12 14 16 14 11
40 38 32 31 29 30 32 27 25 22 19 17 16 16 15 14 14 14 14 14 14 12 11 13 11 8 4 3 9 15 16 13 9 5 2 5 9 12 12 10 8 9 10
40 35 32 30 29 28 33 29 25 22 19 17 16 15 15 15 14 13 12 11 11 9 8 9 8 2 4 14 21 23 18 12 8 5 6 9 11 11 9 9 10 11 12
40 36 33 30 28 25 25 26 24 22 20 17 14 14 14 13 12 12 11 10 9 7 6 6 4 4 16 25 24 21 11 7 4 4 6 9 10 9 9 11 13 14 17
35 33 30 29 29 27 26 26 24 21 19 18 16 15 14 13 13 12 11 10 7 6 6 6 5 6 13 22 21 8 7 6 5 1 6 10 9 12 13 14 16 18 20
31 30 29 29 31 30 30 28 25 23 22 20 15 15 14 14 13 11 10 8 7 6 6 6 7 7 8 13 14 9 8 7 4 4 4 10 13 13 16 17 19 22 24
34 33 30 28 30 32 30 25 23 22 21 20 17 16 16 14 12 11 9 8 7 6 7 6 7 8 9 8 8 10 8 8 8 6 5 12 14 16 20 20 23 25 28
38 34 31 30 33 31 29 27 26 25 24 22 20 19 17 15 13 12 10 8 8 7 8 8 8 9 10 10 10 11 10 9 12 11 11 12 13 15 20 23 26 28 29
Wind_Direction
158 143 148 144 138 131 128 119 116 112 108 111 106 104 104 105 100 100 96 97 97 94 100 105 112 113 112 116 116 112 104 100 95 88 85 80 78 88 93 85 85 84 83
145 141 147 144 137 132 125 118 117 113 110 108 105 110 108 115 116 105 94 93 107 109 110 109 110 112 118 123 120 113 109 107 104 92 88 72 69 70 86 76 82 85 87
141 143 146 142 134 129 123 121 117 112 110 108 108 108 115 115 118 116 107 94 101 117 115 112 113 117 123 125 119 114 110 107 99 88 75 67 58 51 50 60 68 71 76
142 144 141 137 132 127 123 119 115 111 107 107 112 110 109 112 117 117 102 89 100 111 109 112 112 115 121 121 118 112 101 87 75 77 71 62 50 43 39 44 49 53 56
142 143 139 136 133 129 126 121 117 114 110 108 111 112 112 112 111 112 101 101 107 112 110 111 110 115 121 120 114 102 86 71 74 68 59 58 48 40 36 39 43 45 45
141 142 140 137 133 129 126 120 112 109 109 105 107 105 108 113 117 113 109 111 110 108 107 106 107 111 120 121 116 107 95 77 81 50 57 63 51 40 31 29 27 24 20
142 142 141 138 134 131 128 121 113 110 109 109 104 101 103 105 106 108 113 119 119 118 115 111 113 116 122 127 123 113 93 78 81 66 63 52 56 36 24 14 11 10 6
143 142 142 141 138 134 129 124 117 113 108 107 107 104 101 103 106 110 117 122 123 120 117 113 111 113 117 120 124 128 89 57 62 40 26 340 25 18 14 8 357 348 346
145 143 143 142 140 137 132 126 120 113 109 107 105 104 103 103 103 108 112 116 118 117 111 103 98 95 94 95 101 148 147 114 54 46 4 282 281 343 4 4 357 346 333
149 147 144 142 140 137 135 132 128 121 115 111 106 102 98 102 94 97 103 108 114 114 109 102 95 93 97 104 83 79 154 176 46 30 31 18 344 321 355 354 352 348 338
156 154 150 145 141 138 135 133 130 126 124 118 109 104 96 98 84 83 86 92 91 90 82 68 65 64 73 76 32 59 65 224 239 8 4 358 299 322 347 346 352 348 351
160 159 155 150 144 139 137 134 129 125 126 128 113 119 100 96 101 90 85 82 86 92 92 95 97 90 95 41 39 12 7 6 20 314 337 345 345 334 319 305 314 315 315
164 162 158 153 145 142 136 134 133 132 127 145 138 134 133 122 128 107 92 93 94 111 117 109 60 312 240 306 333 325 331 322 346 345 308 318 309 296 283 292 294 297 294
168 166 159 155 151 147 146 142 138 143 148 158 159 151 181 150 155 169 186 179 192 205 206 261 238 258 260 284 272 305 285 270 264 275 287 274 297 288 287 292 286 286 290
172 167 164 165 161 163 160 161 162 165 166 161 161 181 182 197 183 204 203 195 215 218 214 203 239 250 250 249 238 247 270 276 281 282 286 300 292 287 290 301 316 326 321
180 176 171 174 172 176 174 172 184 181 182 183 193 203 208 201 200 197 203 218 231 233 240 241 253 254 257 266 274 280 286 285 289 299 295 299 306 331 6 2 351 342 340
188 179 176 180 180 178 178 181 186 191 187 193 211 230 220 216 218 224 229 244 242 249 259 263 266 268 269 270 275 293 296 302 288 266 142 118 92 47 359 359 343 328 320
181 175 174 185 185 184 184 183 190 194 201 215 227 225 213 216 220 227 233 244 250 260 260 261 262 264 264 263 257 263 226 129 128 129 127 101 48 9 348 344 325 317 314
186 182 183 187 190 194 190 191 198 207 214 221 223 215 212 218 228 235 240 243 250 254 258 263 269 270 267 260 241 200 161 146 138 127 116 39 360 352 350 340 325 319 327
188 187 191 191 198 200 201 201 206 210 215 219 219 220 222 229 237 242 248 250 250 253 262 265 267 275 281 188 160 152 149 144 144 144 71 12 355 351 349 343 351 8 7
185 190 195 197 200 204 205 205 207 212 217 221 222 227 232 238 240 240 242 241 249 257 257 260 264 232 135 144 143 136 132 137 139 97 32 9 4 0 3 8 11 16 15
188 193 196 204 211 212 210 210 211 214 214 218 220 230 231 232 236 234 236 243 250 258 241 236 230 158 144 152 148 146 134 134 130 69 17 4 8 17 26 32 29 17 9
193 197 203 211 214 214 209 210 206 206 209 213 221 227 216 215 221 226 234 246 244 231 218 212 197 157 146 173 171 174 168 184 187 190 41 21 40 42 48 37 27 20 15
201 209 213 219 218 213 210 209 215 218 211 205 209 217 213 209 213 220 226 229 221 209 195 185 159 148 139 141 150 135 144 134 150 164 85 53 54 55 41 38 30 23 17
211 212 217 222 216 206 208 206 210 208 201 200 206 214 207 207 208 210 212 210 198 187 171 156 146 145 141 132 128 123 115 96 96 81 80 69 57 52 40 33 28 22 18
212 214 220 220 203 199 197 201 206 201 208 204 204 207 203 204 203 202 198 191 180 175 155 156 154 143 126 121 114 114 113 99 79 68 59 60 64 52 43 33 26 22 16